Regional Weather Roundup
Issued by NWS Green Bay, WI

Home | Current Version | Previous Version | Text Only | Print | Product List | Glossary On
Versions: 1 2 3 4 5 6 7 8 9 10 11 12 13 14 15 16 17 18 19 20 21 22 23 24 25 26 27 28 29 30 31 32 33 34 35 36 37 38 39 40 41 42 43 44 45 46 47 48 49 50
000
ASUS43 KGRB 020011
RWRGRB

NORTH-CENTRAL AND NORTHEAST WISCONSIN REGIONAL WEATHER ROUNDUP
NATIONAL WEATHER SERVICE GREEN BAY WI
700 PM CDT TUE SEP 01 2015

WIZ005-009-010>012-018-019-020100-
NORTH CENTRAL WISCONSIN

CITY           SKY/WX    TMP DP  RH WIND       PRES   REMARKS
IRONWOOD       PTCLDY    79  73  83 N3        29.90R
MANITOWISH WTR PTCLDY    75  70  84 S3        29.96S
ARBOR VITAE    PTCLDY    77  71  80 CALM      29.97R
EAGLE RIVER    PTCLDY    76  65  70 CALM      29.96S
LAND O LAKES   PTCLDY    77  67  72 CALM      29.97S
RHINELANDER    PTCLDY    78  71  79 CALM      29.98R
PHILLIPS       CLOUDY    77  71  80 CALM      29.96S
ANTIGO         PTCLDY    78  72  80 S3        29.97S
TOMAHAWK       MOCLDY    76  72  85 CALM      29.97R
MERRILL        MOCLDY    80  73  81 CALM      29.96R
$$

WIZ013-073-020100-
NORTHEAST WISCONSIN

CITY           SKY/WX    TMP DP  RH WIND       PRES   REMARKS
IRON MOUNTAIN  MOCLDY    80  67  64 SW5       29.93R
MARINETTE      PTCLDY    81  70  69 SW6       29.91S
OCONTO         PTCLDY    80  75  86 CALM      29.91F
$$

WIZ017-030-035>037-045-020100-
CENTRAL WISCONSIN

CITY           SKY/WX    TMP DP  RH WIND       PRES   REMARKS
MEDFORD        MOCLDY    78  73  85 CALM      29.95S
WAUSAU         MOCLDY    81  71  71 SW5       29.93S
MOSINEE        NOT AVBL
MARSHFIELD     PTCLDY    81  71  71 SW5       29.95R
WISC RAPIDS    PTCLDY    81  70  69 S3        29.95S
STEVENS POINT  MOCLDY    81  69  67 SW6       29.95S
WAUPACA        PTCLDY    84  72  67 CALM      29.94S HX  90
SHAWANO        PTCLDY    82  71  68 CALM      29.93S
CLINTONVILLE   CLEAR     81  70  69 S3        29.92F
WAUTOMA        MOCLDY    84  74  72 CALM      29.94S HX  91
$$

WIZ038-039-048-051-020100-
FOX VALLEY

CITY           SKY/WX    TMP DP  RH WIND       PRES   REMARKS
NWS GREEN BAY  CLEAR     81  71  71 S5        29.93S
APPLETON       MOCLDY    81  68  65 VRB6      29.93S
OSHKOSH        CLEAR     79  72  79 S6        29.94S
FOND DU LAC    CLEAR     81  73  76 S5        29.95S
$$

WIZ022-050-052-020100-
EAST CENTRAL WISCONSIN

CITY           SKY/WX    TMP DP  RH WIND       PRES   REMARKS
EPHRAIM        FAIR      70  66  85 S3        29.93S
STURGEON BAY   PTCLDY    75  70  83 S6        29.96S
MANITOWOC      CLEAR     70  66  87 MISG      29.96R FOG
SHEBOYGAN      CLEAR     78  72  81 SE3       29.96R HAZE
$$

LMZ563-521-522-541>543-020100-
LAKESHORE

STATION/POSITION TIME  TEMP    WIND        PRES    VSBY  WAVE
                       AIR SEA DIR/SP/G                  HT/PER
                 (UTC) (F)     (DEG/KT/KT) (MB)    (MI)  (FT/S)
SHEBOYGAN LKSHOR 0000   68     180/ 13/ 14 1014.5R
KEWAUNEE LKSHORE 2300   53     170/  7/  9 1013.1S
NORTHPORT PIER   2300   69     160/  6/  9 1013.2S
N MID LAKE BUOY  2350   67 65  200/ 14/ 14 1013.4F         2/ 4
S GREEN BAY BUOY 0000   74 67  200/  6/  8 1014.8S
SISTER BAY LKSHO 2319   74     150/  8/ 11   N/A
CHAMBERS ISLAND  2300   80     170/  4/ 10 1012.9S
MENOMINEE LKSHOR 2300   78     180/  8/ 10 1012.0S
$$


USA.gov is the U.S. government's official web portal to all federal, state and local government web resources and services.